Latest Weather Observations for Legendre Island

IDW60801

Issued at 2:05 pm WST Sunday 26 October 2014 (issued every 30 minutes, with the page automatically refreshed every 10 minutes)

About weather observations | Map of weather stations | Latest weather observations for WA | Other Formats
Station Details ID: 004095 Name: LEGENDRE ISLAND Lat: -20.36 Lon: 116.84 Height: 29.0 m
Data from the previous 72 hours. | See also: Recent months for locations in Western Australia
Date/Time
WST
Temp
°C
App
Temp
°C
Dew
Point
Rel
Hum
%
Delta-T
°C
Wind Press
QNH
hPa
Press
MSL
hPa
Rain
since 9 am
mm
Dir
 
Spd
km/h
Gust
km/h
Spd
kts
Gust
kts
26/02:00pm 29.6 28.1 20.2 57 6.2 W 28 33 15 18 1011.6 1011.5 -
26/01:30pm 30.3 28.9 20.5 55 6.5 WSW 28 33 15 18 1011.9 1011.8 -
26/01:00pm 30.2 28.4 20.4 55 6.5 WSW 30 35 16 19 1012.2 1012.1 -
26/12:30pm 30.1 28.8 19.8 54 6.8 WSW 26 32 14 17 1012.4 1012.3 -
26/12:00pm 29.9 28.8 20.2 56 6.4 WSW 26 32 14 17 1012.9 1012.8 -
26/11:30am 30.0 29.2 20.0 55 6.6 WSW 24 28 13 15 1013.1 1013.0 -
26/11:00am 29.5 28.7 20.1 57 6.2 WSW 24 30 13 16 1013.5 1013.4 -
26/10:30am 29.6 29.0 20.5 58 6.0 WSW 24 28 13 15 1013.8 1013.7 -
26/10:00am 29.1 29.2 20.3 59 5.8 WSW 20 26 11 14 1014.0 1013.9 -
26/09:30am 29.2 28.9 19.5 56 6.3 WSW 20 24 11 13 1014.0 1013.9 -
26/09:00am 28.6 27.9 18.7 55 6.4 SW 20 22 11 12 1014.0 1013.9 -
26/08:30am 28.6 29.2 21.1 64 5.0 SW 19 22 10 12 1013.7 1013.6 -
26/08:00am 27.4 27.3 20.0 64 4.8 SW 20 24 11 13 1013.5 1013.4 -
26/07:30am 26.7 26.9 20.5 69 4.1 SSW 20 24 11 13 1013.4 1013.3 -
26/07:00am 26.0 26.8 21.4 76 3.1 SSW 19 22 10 12 1013.3 1013.2 -
26/06:30am 24.9 25.8 21.6 82 2.2 SW 19 22 10 12 1013.0 1012.9 -
26/06:00am 23.9 24.6 21.2 85 1.8 SW 19 20 10 11 1012.5 1012.4 -
26/05:30am 23.8 24.4 21.3 86 1.6 SSW 20 22 11 12 1012.3 1012.2 -
26/05:00am 24.1 24.9 21.4 85 1.8 SSW 19 20 10 11 1012.1 1012.0 -
26/04:30am 24.3 25.2 21.6 85 1.8 SW 19 20 10 11 1011.9 1011.8 -
26/04:00am 24.5 25.2 22.2 87 1.5 SW 22 26 12 14 1011.6 1011.5 -
26/03:30am 24.5 25.7 22.2 87 1.5 SW 19 20 10 11 1011.6 1011.5 -
26/03:00am 24.6 25.9 22.3 87 1.5 SW 19 22 10 12 1011.7 1011.6 -
26/02:30am 24.6 25.8 22.5 88 1.4 SW 20 24 11 13 1011.7 1011.6 -
26/02:00am 24.7 26.0 22.6 88 1.4 SW 20 24 11 13 1011.6 1011.5 -
26/01:30am 24.9 25.9 22.8 88 1.4 SW 22 26 12 14 1011.8 1011.7 -
26/01:00am 24.9 25.5 22.8 88 1.4 SW 24 28 13 15 1011.9 1011.8 -
26/12:30am 25.1 25.8 23.0 88 1.4 SW 24 28 13 15 1012.2 1012.1 -
26/12:00am 25.2 25.9 22.9 87 1.6 SW 24 30 13 16 1012.4 1012.3 -
 
Date/Time
WST
Temp
°C
App
Temp
°C
Dew
Point
Rel
Hum
%
Delta-T
°C
Wind Press
QNH
hPa
Press
MSL
hPa
Rain
since 9 am
mm
Dir
 
Spd
km/h
Gust
km/h
Spd
kts
Gust
kts
25/11:30pm 25.3 25.5 22.8 86 1.7 SW 26 33 14 18 1012.5 1012.4 -
25/11:00pm 25.5 24.9 22.6 84 2.0 SW 30 35 16 19 1012.7 1012.6 -
25/10:30pm 25.6 24.8 22.3 82 2.2 SW 30 35 16 19 1012.9 1012.8 -
25/10:00pm 25.8 24.3 22.1 80 2.5 SW 33 41 18 22 1012.8 1012.7 -
25/09:30pm 25.7 24.7 22.0 80 2.5 SW 30 37 16 20 1012.9 1012.8 -
25/09:00pm 25.9 24.1 21.6 77 2.9 SW 33 41 18 22 1012.7 1012.6 -
25/08:30pm 26.1 23.7 21.1 74 3.3 SW 35 44 19 24 1012.5 1012.4 -
25/08:00pm 26.2 23.3 20.8 72 3.6 SW 37 48 20 26 1012.3 1012.2 -
25/07:30pm 26.5 22.8 19.9 67 4.3 WSW 39 48 21 26 1012.0 1011.9 -
25/07:00pm 26.5 22.8 19.9 67 4.3 WSW 39 50 21 27 1011.8 1011.7 -
25/06:30pm 26.8 22.0 19.2 63 4.9 WSW 43 52 23 28 1011.6 1011.5 -
25/06:00pm 26.9 22.2 19.5 64 4.8 WSW 43 52 23 28 1011.4 1011.3 -
25/05:30pm 27.4 22.8 19.7 63 5.0 WSW 43 52 23 28 1011.3 1011.2 -
25/05:00pm 27.7 23.6 20.0 63 5.0 WSW 41 52 22 28 1011.2 1011.1 -
25/04:30pm 28.2 23.6 19.7 60 5.5 WSW 43 50 23 27 1011.1 1011.0 -
25/04:00pm 28.2 24.0 19.7 60 5.5 WSW 41 50 22 27 1011.1 1011.0 -
25/03:30pm 28.8 25.3 20.3 60 5.6 WSW 39 48 21 26 1011.3 1011.2 -
25/03:00pm 29.1 26.0 20.5 59 5.7 W 37 46 20 25 1011.6 1011.5 -
25/02:30pm 29.5 27.5 21.2 61 5.5 W 33 43 18 23 1011.9 1011.8 -
25/02:00pm 29.3 27.3 20.7 59 5.7 W 32 41 17 22 1012.4 1012.3 -
25/01:30pm 29.1 26.9 20.3 59 5.8 W 32 39 17 21 1012.7 1012.6 -
25/01:00pm 29.7 27.7 20.8 58 5.9 WSW 32 37 17 20 1013.1 1013.0 -
25/12:30pm 29.0 27.2 20.4 59 5.7 W 30 35 16 19 1013.5 1013.4 -
25/12:00pm 29.3 27.0 19.3 55 6.5 W 30 39 16 21 1013.8 1013.7 -
25/11:30am 30.0 28.6 19.7 54 6.8 WSW 26 32 14 17 1014.0 1013.9 -
25/11:00am 29.6 28.6 19.6 55 6.5 WSW 24 30 13 16 1014.1 1014.0 -
25/10:30am 29.9 27.9 18.3 49 7.5 WSW 26 32 14 17 1014.3 1014.2 -
25/10:00am 30.7 27.3 15.9 40 9.2 SW 28 33 15 18 1014.4 1014.3 -
25/09:30am 29.1 26.9 17.0 48 7.6 SW 24 28 13 15 1014.5 1014.4 -
25/09:00am 28.5 26.2 17.7 52 6.8 SW 26 30 14 16 1014.4 1014.3 -
25/08:30am 28.1 26.1 17.3 52 6.8 SW 24 30 13 16 1014.5 1014.4 -
25/08:00am 27.5 26.2 18.2 57 5.9 SW 22 26 12 14 1014.1 1014.0 -
25/07:30am 27.0 25.2 17.8 57 5.8 SW 24 30 13 16 1014.0 1013.9 -
25/07:00am 26.2 25.1 17.8 60 5.3 SW 20 28 11 15 1013.8 1013.7 -
25/06:30am 25.3 24.4 18.2 64 4.5 SW 20 24 11 13 1013.3 1013.2 -
25/06:00am 24.6 22.6 18.3 68 4.0 SW 26 30 14 16 1013.0 1012.9 -
25/05:30am 24.5 22.5 18.2 68 4.0 SW 26 30 14 16 1012.6 1012.5 -
25/05:00am 24.8 23.0 17.8 65 4.4 SW 24 28 13 15 1012.5 1012.4 -
25/04:30am 25.0 22.5 17.2 62 4.8 SW 26 30 14 16 1012.3 1012.2 -
25/04:00am 25.0 22.5 17.2 62 4.9 SW 26 32 14 17 1011.9 1011.8 -
25/03:30am 25.1 22.6 17.1 61 5.0 SW 26 33 14 18 1011.8 1011.7 -
25/03:00am 25.2 23.5 18.2 65 4.4 SW 24 28 13 15 1011.5 1011.4 -
25/02:30am 25.3 23.4 18.5 66 4.3 SW 26 32 14 17 1011.4 1011.3 -
25/02:00am 25.3 23.1 18.7 67 4.2 SW 28 35 15 19 1011.3 1011.2 -
25/01:30am 25.1 23.7 19.7 72 3.5 SW 26 32 14 17 1011.4 1011.3 -
25/01:00am 25.0 23.9 20.3 75 3.1 SW 26 32 14 17 1011.7 1011.6 -
25/12:30am 25.2 23.8 21.1 78 2.7 WSW 30 35 16 19 1011.9 1011.8 -
25/12:00am 25.1 24.1 21.2 79 2.6 WSW 28 33 15 18 1012.2 1012.1 -
 
Date/Time
WST
Temp
°C
App
Temp
°C
Dew
Point
Rel
Hum
%
Delta-T
°C
Wind Press
QNH
hPa
Press
MSL
hPa
Rain
since 9 am
mm
Dir
 
Spd
km/h
Gust
km/h
Spd
kts
Gust
kts
24/11:30pm 25.2 24.0 20.9 77 2.8 WSW 28 33 15 18 1012.4 1012.3 -
24/11:00pm 25.3 24.1 20.8 76 3.0 SW 28 33 15 18 1012.6 1012.5 -
24/10:30pm 25.4 23.3 20.6 75 3.1 WSW 32 39 17 21 1012.5 1012.4 -
24/10:00pm 25.5 23.3 20.7 75 3.2 WSW 33 41 18 22 1012.3 1012.2 -
24/09:30pm 25.6 23.5 20.6 74 3.3 WSW 32 41 17 22 1012.1 1012.0 -
24/09:00pm 25.6 24.2 20.4 73 3.4 SW 28 33 15 18 1011.8 1011.7 -
24/08:30pm 25.5 24.4 20.3 73 3.4 SW 26 32 14 17 1011.4 1011.3 -
24/08:00pm 25.6 23.7 20.2 72 3.5 WSW 30 37 16 20 1011.1 1011.0 -
24/07:30pm 26.0 23.2 20.3 71 3.7 WSW 35 43 19 23 1010.7 1010.6 -
24/07:00pm 26.4 23.8 19.8 67 4.3 WSW 33 43 18 23 1010.3 1010.2 -
24/06:30pm 26.9 23.5 18.2 59 5.5 WSW 33 43 18 23 1009.8 1009.7 -
24/06:00pm 27.3 24.4 18.0 56 5.9 WSW 30 35 16 19 1009.6 1009.5 -
24/05:30pm 27.7 25.9 18.7 58 5.8 WSW 26 33 14 18 1009.3 1009.2 -
24/05:00pm 28.2 25.5 19.2 58 5.8 WSW 32 37 17 20 1008.9 1008.8 -
24/04:30pm 28.5 25.4 18.9 56 6.2 WSW 33 39 18 21 1008.7 1008.6 -
24/04:00pm 29.0 26.2 19.0 54 6.5 WSW 32 41 17 22 1008.8 1008.7 -
24/03:30pm 29.7 26.8 18.8 52 7.0 WSW 32 39 17 21 1009.1 1009.0 -
24/03:00pm 29.6 27.5 19.0 53 6.9 WSW 28 37 15 20 1009.4 1009.3 -
24/02:30pm 29.8 28.4 20.4 57 6.2 WSW 28 35 15 19 1009.7 1009.6 -
24/02:00pm 29.3 27.6 20.5 59 5.8 WSW 30 35 16 19 1009.9 1009.8 -
24/01:30pm 29.3 27.9 20.5 59 5.8 WSW 28 33 15 18 1010.3 1010.2 -
24/01:00pm 30.4 29.8 21.2 58 6.2 WSW 26 32 14 17 1010.7 1010.6 -
24/12:30pm 28.7 27.7 20.4 60 5.5 WSW 26 32 14 17 1011.1 1011.0 -
24/12:00pm 29.8 29.9 20.4 57 6.2 W 20 28 11 15 1011.4 1011.3 -
24/11:30am 29.5 29.5 19.8 56 6.4 WSW 19 22 10 12 1011.5 1011.4 -
24/11:00am 29.9 30.3 21.0 59 5.9 WSW 20 26 11 14 1011.7 1011.6 -
24/10:30am 29.5 29.4 21.4 61 5.4 WSW 24 28 13 15 1011.8 1011.7 -
24/10:00am 29.2 27.2 18.3 51 7.0 SW 26 32 14 17 1011.8 1011.7 -
24/09:30am 28.6 25.8 18.1 53 6.7 SW 30 33 16 18 1011.9 1011.8 -
24/09:00am 27.8 25.6 19.6 61 5.3 WSW 30 33 16 18 1011.9 1011.8 -
24/08:30am 27.6 26.2 19.7 62 5.1 SW 26 32 14 17 1011.9 1011.8 -
24/08:00am 26.8 24.4 19.2 63 4.9 SW 30 33 16 18 1011.6 1011.5 -
24/07:30am 26.4 24.9 19.5 66 4.5 SW 26 30 14 16 1011.4 1011.3 -
24/07:00am 25.6 24.7 19.9 70 3.7 SW 24 28 13 15 1011.4 1011.3 -
24/06:30am 24.7 24.2 20.0 75 3.0 SW 22 28 12 15 1011.3 1011.2 -
24/06:00am 24.0 23.4 19.7 77 2.8 SW 22 26 12 14 1011.1 1011.0 -
24/05:30am 23.9 23.2 19.4 76 2.9 SW 22 28 12 15 1011.0 1010.9 -
24/05:00am 23.9 23.0 19.0 74 3.1 SW 22 26 12 14 1010.8 1010.7 -
24/04:30am 24.1 22.2 18.5 71 3.5 SW 26 32 14 17 1010.6 1010.5 -
24/04:00am 24.2 21.5 18.4 70 3.7 SW 30 33 16 18 1010.4 1010.3 -
24/03:30am 24.4 22.2 18.8 71 3.6 SW 28 33 15 18 1010.3 1010.2 -
24/03:00am 24.4 22.3 19.0 72 3.4 SW 28 32 15 17 1010.4 1010.3 -
24/02:30am 24.6 22.6 19.2 72 3.5 SW 28 33 15 18 1010.6 1010.5 -
24/02:00am 24.7 22.9 19.5 73 3.3 SW 28 35 15 19 1010.4 1010.3 -
24/01:30am 24.8 23.5 20.7 78 2.7 SSW 28 35 15 19 1010.5 1010.4 -
24/01:00am 24.9 24.5 21.6 82 2.2 SSW 26 33 14 18 1010.9 1010.8 -
24/12:30am 24.9 22.9 21.8 83 2.1 SW 35 44 19 24 1010.8 1010.7 -
24/12:00am 25.0 22.6 21.9 83 2.1 SW 37 46 20 25 1010.8 1010.7 -
 
Date/Time
WST
Temp
°C
App
Temp
°C
Dew
Point
Rel
Hum
%
Delta-T
°C
Wind Press
QNH
hPa
Press
MSL
hPa
Rain
since 9 am
mm
Dir
 
Spd
km/h
Gust
km/h
Spd
kts
Gust
kts
23/11:30pm 25.0 23.0 21.9 83 2.1 SW 35 44 19 24 1011.2 1011.1 -
23/11:00pm 25.1 22.3 21.8 82 2.2 SW 39 48 21 26 1011.4 1011.3 -
23/10:30pm 25.1 23.1 21.8 82 2.2 SW 35 46 19 25 1011.8 1011.7 -
23/10:00pm 25.2 22.3 21.5 80 2.5 SW 39 46 21 25 1011.8 1011.7 -
23/09:30pm 25.3 22.6 21.2 78 2.7 SW 37 46 20 25 1011.9 1011.8 -
23/09:00pm 25.2 23.3 21.3 79 2.6 SW 33 39 18 21 1011.9 1011.8 -
23/08:30pm 25.3 23.1 21.4 79 2.6 WSW 35 41 19 22 1011.6 1011.5 -
23/08:00pm 25.4 23.1 21.3 78 2.7 WSW 35 43 19 23 1011.5 1011.4 -
23/07:30pm 25.3 22.8 20.8 76 3.0 WSW 35 41 19 22 1011.2 1011.1 -
23/07:00pm 25.4 23.0 20.4 74 3.3 WSW 33 41 18 22 1011.0 1010.9 -
23/06:30pm 25.5 22.3 20.3 73 3.4 WSW 37 44 20 24 1010.6 1010.5 -
23/06:00pm 26.0 24.3 20.6 72 3.5 WSW 30 37 16 20 1010.5 1010.4 -
23/05:30pm 26.6 25.2 20.4 69 4.1 WSW 28 33 15 18 1010.4 1010.3 -
23/05:00pm 27.0 25.3 20.6 68 4.2 WSW 30 35 16 19 1010.1 1010.0 -
23/04:30pm 27.4 25.4 20.7 67 4.4 WSW 32 41 17 22 1010.0 1009.9 -
23/04:00pm 28.3 26.2 20.6 63 5.1 WSW 32 39 17 21 1010.1 1010.0 -
23/03:30pm 28.4 26.5 20.2 61 5.4 W 30 41 16 22 1010.1 1010.0 -
23/03:00pm 28.7 26.8 20.2 60 5.6 W 30 37 16 20 1010.3 1010.2 -
23/02:30pm 28.6 26.7 20.1 60 5.6 W 30 37 16 20 1010.6 1010.5 -

Other Formats:

Comma delimited format used in spreadsheet applications
http://www.bom.gov.au/fwo/IDW60801/IDW60801.94307.axf

JavaScript Object Notation format (JSON) in row-major order
http://www.bom.gov.au/fwo/IDW60801/IDW60801.94307.json